Hourly Data Report for January 20, 2017

PORT ALBERNI (AUT)
BRITISH COLUMBIA

49°18'59.700" N
124°55'36.600" W
76.20 m
1036B06
71475
WQC

Download Data

Hourly Data (January 2017)
Hourly Data Report for January 20, 2017
TIME
LST
Temp Definition
°C
Dew Point Definition
°C
Rel Hum Definition
%
Precip. Amount Definition
mm

Wind Dir Definition
10's deg

Wind Spd Definition
km/h
Visibility Definition
km
Stn Press Definition
kPa
Hmdx Definition


Wind Chill Definition


Weather Definition


00:00 2.2 LegendMM LegendMM 0.0 31 3   98.56     LegendNANA
01:00 2.0 LegendMM LegendMM 0.4   0   98.51     LegendNANA
02:00 2.1 LegendMM LegendMM 0.2 30 2   98.47     LegendNANA
03:00 2.1 LegendMM LegendMM 0.0 7 2   98.44     LegendNANA
04:00 2.0 LegendMM LegendMM 0.0 17 2   98.33     LegendNANA
05:00 2.3 LegendMM LegendMM 0.0 27 4   98.22     LegendNANA
06:00 1.8 LegendMM LegendMM 0.0 24 1   98.15     LegendNANA
07:00 1.5 LegendMM LegendMM 0.0 27 4   98.08     LegendNANA
08:00 1.3 LegendMM LegendMM 0.0 29 5   98.06     LegendNANA
09:00 1.5 LegendMM LegendMM 0.0 32 7   98.00     LegendNANA
10:00 2.2 LegendMM LegendMM 0.0 30 2   97.97     LegendNANA
11:00 3.2 LegendMM LegendMM 0.0 36 4   97.96     LegendNANA
12:00 4.4 LegendMM LegendMM 0.0 33 8   97.87     LegendNANA
13:00 5.2 LegendMM LegendMM 0.0 28 5   97.80     LegendNANA
14:00 5.9 LegendMM LegendMM 0.0 31 4   97.76     LegendNANA
15:00 6.2 LegendMM LegendMM 0.0 29 4   97.74     LegendNANA
16:00 5.3 LegendMM LegendMM 0.0 33 2   97.76     LegendNANA
17:00 4.4 LegendMM LegendMM 0.0 28 2   97.77     LegendNANA
18:00 3.5 LegendMM LegendMM 0.0 32 3   97.78     LegendNANA
19:00 3.3 LegendMM LegendMM 0.0 31 5   97.81     LegendNANA
20:00 2.8 LegendMM LegendMM 0.0 30 5   97.86     LegendNANA
21:00 2.8 LegendMM LegendMM 0.0 0 1   97.90     LegendNANA
22:00 2.7 LegendMM LegendMM 0.0 32 2   97.94     LegendNANA
23:00 2.8 LegendMM LegendMM 0.0 31 2   97.98     LegendNANA

Notes on Data Quality.

Legend

  • E = Estimated
  • M = Missing
  • NA = Not Available*
  • [empty] = Indicates an unobserved value
Date modified: